[[{"header":{"parameterUnit":"m.s-1","parameterCategory":1,"la1":30.2992,"la2":30.254,"lo1":-89.0895,"lo2":-89.0443,"dy":0.0025,"dx":0.0025,"nx":19,"ny":19,"refTime":"2026-04-26T03:00:00:Z","depth":0,"parameterNumber":2,"parameterNumberName":"U-component_of_WINDS"},"data":[0,0,0,-2.8102,-2.8103,-2.8156,-2.8157,-2.8229,-2.823,0,0,0,0,0,0,0,0,0,0,0,-2.8089,-2.8089,-2.8102,-2.8103,-2.8156,-2.8157,-2.8229,-2.823,0,0,0,0,0,0,0,0,0,0,0,-2.8088,-2.8089,-2.809,-2.8103,-2.8156,-2.8157,-2.8229,-2.8187,0,0,0,0,0,0,0,0,0,0,-2.8134,-2.8125,-2.8089,-2.809,-2.8104,-2.8156,-2.8157,-2.8185,-2.8189,-2.8206,0,-2.8222,0,-2.8227,-2.8235,-2.8235,0,0,0,-2.8101,-2.8121,-2.8133,-2.809,-2.8104,-2.8156,-2.8132,-2.8187,-2.8193,-2.8213,-2.8223,-2.8226,-2.8228,-2.8235,-2.8236,-2.834,-2.8341,0,0,-2.8098,-2.8099,-2.8129,-2.8136,-2.8129,-2.813,-2.8134,-2.8191,-2.8202,-2.8224,-2.8227,-2.823,-2.8236,-2.8236,-2.834,-2.8341,0,0,0,-2.8091,-2.8098,-2.8108,-2.8134,-2.8143,-2.8132,-2.8136,-2.82,-2.8203,-2.8228,-2.823,-2.8236,-2.8237,-2.8339,-2.834,-2.837,0,0,0,-2.8089,-2.8093,-2.8107,-2.8108,-2.8142,-2.8172,-2.8143,-2.8199,-2.8205,-2.823,-2.8236,-2.8238,-2.8339,-2.834,-2.8368,-2.8384,0,0,0,-2.8084,-2.8093,-2.8101,-2.8108,-2.8131,-2.8171,-2.8178,-2.82,-2.8207,-2.8235,-2.8238,-2.8338,-2.8339,-2.8366,-2.838,-2.8412,0,0,0,-2.8079,-2.8127,-2.8102,-2.8156,-2.8131,-2.8189,-2.8177,-2.8221,-2.8248,-2.8236,-2.8339,-2.834,-2.8365,-2.8378,-2.841,-2.8438,-2.845,0,0,-2.814,-2.8134,-2.8166,-2.8145,-2.8208,-2.8181,-2.8248,-2.8273,-2.8274,-2.8318,-2.8321,-2.8368,-2.838,-2.8411,-2.8517,-2.8527,0,0,0,-2.8186,-2.8208,-2.8225,-2.8252,-2.8271,-2.829,-2.8304,-2.8313,-2.835,-2.8297,-2.8388,-2.8395,-2.8413,-2.8427,-2.8435,-2.8451,-2.8346,-2.8346,-2.8346,-2.8273,-2.8273,-2.8325,-2.8332,-2.8358,-2.8372,-2.8393,-2.8407,-2.8399,-2.8421,-2.8434,-2.8498,-2.8514,-2.852,-2.8536,-2.8449,-2.8449,-2.8449,-2.8449,-2.8362,-2.8394,-2.8383,-2.843,-2.8429,-2.8469,-2.8484,-2.8477,-2.8514,-2.8488,-2.8504,-2.8476,-2.8531,-2.8545,-2.8452,-2.8451,-2.8451,-2.8451,-2.8451,-2.8419,-2.8435,-2.8445,-2.8484,-2.8514,-2.8518,-2.8554,-2.8553,-2.8551,-2.8567,-2.8581,-2.858,-2.8579,-2.8574,-2.8574,-2.8574,-2.8574,-2.8574,-2.8575,-2.8474,-2.8485,-2.8516,-2.8541,-2.8558,-2.858,-2.8595,-2.8612,-2.863,-2.8626,-2.8626,-2.8616,-2.8536,-2.8516,-2.8578,-2.8577,-2.8577,-2.8577,-2.8576,-2.8565,-2.8544,-2.8591,-2.8608,-2.8638,-2.8668,-2.8665,-2.87,-2.8713,-2.8731,-2.8718,-2.8659,-2.8653,-2.8647,-2.863,-2.8718,-2.8718,-2.8718,-2.8718,-2.8613,-2.861,-2.8658,-2.8685,-2.8712,-2.8714,-2.8768,-2.878,-2.8789,-2.8798,-2.8785,-2.8763,-2.8756,-2.8754,-2.8745,-2.873,-2.8841,-2.8841,-2.8841,-2.8669,-2.8668,-2.8714,-2.8722,-2.8746,-2.8766,-2.8816,-2.8848,-2.8855,-2.8846,-2.8805,-2.8799,-2.8764,-2.8752,-2.8742,-2.8729,-2.87,0,0]},{"header":{"parameterUnit":"m.s-1","parameterCategory":1,"la1":30.2992,"la2":30.254,"lo1":-89.0895,"lo2":-89.0443,"dy":0.0025,"dx":0.0025,"nx":19,"ny":19,"refTime":"2026-04-26T03:00:00:Z","depth":0,"parameterNumber":3,"parameterNumberName":"V-component_of_WINDS"},"data":[0,0,0,3.7672,3.7674,3.7754,3.7754,3.783,3.7831,0,0,0,0,0,0,0,0,0,0,0,3.7636,3.7636,3.7672,3.7674,3.7754,3.7754,3.783,3.7831,0,0,0,0,0,0,0,0,0,0,0,3.7636,3.7636,3.7636,3.7674,3.7754,3.7754,3.783,3.7778,0,0,0,0,0,0,0,0,0,0,3.7704,3.7659,3.7636,3.7636,3.7675,3.7754,3.7754,3.7776,3.7781,3.7784,0,3.7785,0,3.7809,3.7834,3.7834,0,0,0,3.7682,3.7655,3.7688,3.7636,3.7675,3.7754,3.772,3.7779,3.7785,3.779,3.7787,3.779,3.7811,3.7835,3.7835,3.7829,3.7828,0,0,3.7678,3.7642,3.7684,3.7692,3.7682,3.7718,3.7723,3.7783,3.7775,3.7787,3.7792,3.7812,3.7835,3.7835,3.7829,3.7829,0,0,0,3.7659,3.7639,3.7672,3.7688,3.7705,3.772,3.7725,3.7772,3.7786,3.7793,3.7813,3.7835,3.7836,3.783,3.7829,3.7776,0,0,0,3.7657,3.7628,3.7669,3.7648,3.7703,3.774,3.7713,3.7782,3.779,3.7812,3.7835,3.7837,3.783,3.7829,3.7779,3.7757,0,0,0,3.7635,3.7626,3.7634,3.7646,3.768,3.774,3.7758,3.7785,3.7802,3.7835,3.7837,3.7831,3.783,3.7781,3.776,3.7746,0,0,0,3.76,3.7583,3.7632,3.762,3.7679,3.7708,3.7758,3.778,3.7802,3.7836,3.783,3.7829,3.7782,3.7763,3.7748,3.7728,3.7717,0,0,3.7558,3.7576,3.7572,3.7619,3.7631,3.7698,3.7701,3.7752,3.7785,3.7811,3.7812,3.7778,3.7761,3.7746,3.7662,3.7653,0,0,0,3.7547,3.7544,3.7555,3.7576,3.7618,3.7651,3.7706,3.7725,3.775,3.7793,3.7769,3.776,3.7753,3.7745,3.7737,3.7734,3.7824,3.7824,3.7824,3.7437,3.7485,3.7481,3.7538,3.7557,3.7616,3.7635,3.767,3.7709,3.7702,3.7711,3.7654,3.7644,3.7638,3.7634,3.7703,3.7703,3.7703,3.7703,3.7382,3.7385,3.744,3.7457,3.7505,3.7518,3.7573,3.76,3.7618,3.7651,3.7647,3.7681,3.7626,3.7625,3.7699,3.77,3.77,3.77,3.7701,3.7316,3.7326,3.7352,3.7389,3.7411,3.7467,3.7483,3.7525,3.7564,3.756,3.7574,3.7575,3.7582,3.7564,3.7564,3.7564,3.7563,3.7563,3.7563,3.7238,3.727,3.728,3.7323,3.7343,3.7374,3.7433,3.7452,3.7484,3.7513,3.7514,3.7552,3.7613,3.7627,3.756,3.7561,3.7561,3.7562,3.7562,3.7166,3.719,3.7206,3.7226,3.7281,3.73,3.7354,3.739,3.7412,3.7418,3.7458,3.7496,3.7516,3.7522,3.7535,3.7448,3.7448,3.7448,3.7448,3.7112,3.7127,3.7154,3.7183,3.7217,3.7268,3.7281,3.7326,3.7374,3.739,3.7409,3.7428,3.7433,3.7451,3.7459,3.7471,3.737,3.737,3.737,3.7071,3.7092,3.7097,3.7149,3.7195,3.7233,3.7247,3.7276,3.7335,3.7368,3.7404,3.7407,3.7439,3.7448,3.7481,3.7493,3.7517,0,0]}]]